C/2016 C1 ( PanSTARRS )

Japanese version
Home page
Updated on May 22, 2017

---------------------------------------------------------------------

* Profile

Discovery Date February 12, 2016
Magnitude 19.9 mag
Discoverer Pan-STARRS 1 telescope (Haleakala)

* Pictures

* Orbital Elements

Epoch 2016 Feb. 22.0 TT = JDT 2457440.5
T 2016 Feb. 16.36074 TT                                 MPCW
q   8.4593597            (2000.0)            P               Q
z  -0.0005781      Peri.  328.56804     -0.86187002     -0.50647137
 +/-0.0000020      Node   181.78121     +0.41418138     -0.73237399
e   1.0048900      Incl.   56.17840     -0.29263264     +0.45509899
From 104 observations 2016 Feb. 12-2017 Mar. 4, mean residual 0".5.

* Magnitudes Graph

        m1 = 4.5 + 5 log d + 10.0 log r

---------------------------------------------------------------------

The orbital elements are published on M.P.E.C. 2017-E59.
The magnitudes graphs are made with Comet for Windows.

---------------------------------------------------------------------

Copyright(C) Seiichi Yoshida (comet@aerith.net). All rights reserved.